This demonstration page uses our WeatherBlox Daily Observations layout. Learn more.

Left ArrowRight Arrow

Hourly Observations for May 12, 2015

Temp ( °F °C ) Dew Point ( °F °C ) Humidity (%) Winds ( mph kmh ) Pressure ( in mb ) Visibility ( mi km ) Precip ( " mm )
12:16 am 00:16 Mostly Cloudy 64 18 52 11 64 64 W 17 28 29.97 1015 10 16.0934 N/A
12:36 am 00:36 Clear 63 17 50 10 64 64 W 12 19 29.97 1015 10 16.0934 N/A
12:56 am 00:56 Partly Cloudy 63 17 46 8 56 56 W 15 24 30 1016 10 16.0934 N/A
1:16 am 01:16 Partly Cloudy 61 16 48 9 63 63 W 8 13 30 1016 10 16.0934 N/A
1:36 am 01:36 Partly Cloudy 61 16 43 6 52 52 W 21 33 30 1016 10 16.0934 N/A
1:56 am 01:56 Partly Cloudy 59 15 41 5 51 51 W 20 31 30.03 1017 10 16.0934 N/A
2:16 am 02:16 Clear 59 15 41 5 51 51 WNW 21 33 30.03 1017 10 16.0934 N/A
2:36 am 02:36 Clear 57 14 39 4 51 51 WNW 13 20 30.03 1017 10 16.0934 N/A
2:56 am 02:56 Clear 57 14 39 4 51 51 WNW 13 20 30.03 1017 10 16.0934 N/A
3:16 am 03:16 Clear 55 13 39 4 55 55 WNW 8 13 30.03 1017 10 16.0934 N/A
3:36 am 03:36 Clear 54 12 41 5 63 63 W 8 13 30.03 1017 10 16.0934 N/A
3:56 am 03:56 Clear 52 11 43 6 72 72 W 7 11 30.06 1018 10 16.0934 N/A
4:16 am 04:16 Clear 52 11 41 5 67 67 W 7 11 30.06 1018 10 16.0934 N/A
4:36 am 04:36 Clear 52 11 41 5 67 67 WSW 8 13 30.06 1018 10 16.0934 N/A
4:56 am 04:56 Clear 50 10 43 6 76 76 WSW 8 13 30.06 1018 10 16.0934 N/A
5:16 am 05:16 Clear 50 10 41 5 71 71 WSW 7 11 30.06 1018 10 16.0934 N/A
5:36 am 05:36 Clear 52 11 41 5 67 67 W 12 19 30.06 1018 10 16.0934 N/A
5:56 am 05:56 Clear 52 11 39 4 62 62 W 12 19 30.09 1019 10 16.0934 N/A
6:16 am 06:16 Clear 50 10 39 4 67 67 W 13 20 30.09 1019 10 16.0934 N/A
6:36 am 06:36 Sunny 50 10 39 4 67 67 W 10 17 30.09 1019 10 16.0934 N/A
6:56 am 06:56 Sunny 50 10 41 5 71 71 W 10 17 30.09 1019 10 16.0934 N/A
7:16 am 07:16 Sunny 52 11 39 4 62 62 W 8 13 30.09 1019 10 16.0934 N/A
7:36 am 07:36 Sunny 54 12 37 3 54 54 WSW 10 17 30.09 1019 10 16.0934 N/A
7:56 am 07:56 Sunny 54 12 36 2 51 51 W 16 26 30.12 1020 10 16.0934 N/A
8:16 am 08:16 Sunny 55 13 34 1 44 44 W 20 31 30.09 1019 10 16.0934 N/A
8:36 am 08:36 Sunny 55 13 36 2 47 47 WSW 16 26 30.09 1019 10 16.0934 N/A
8:56 am 08:56 Partly Cloudy 55 13 34 1 44 44 W 20 31 30.09 1019 10 16.0934 N/A
9:16 am 09:16 Mostly Cloudy 57 14 34 1 41 41 W 17 28 30.09 1019 10 16.0934 N/A
9:36 am 09:36 Mostly Cloudy 57 14 34 1 41 41 W 16 26 30.09 1019 10 16.0934 N/A
9:56 am 09:56 Cloudy 55 13 34 1 44 44 W 20 31 30.09 1019 10 16.0934 N/A
10:16 am 10:16 Cloudy 55 13 34 1 44 44 W 18 30 30.09 1019 10 16.0934 N/A
10:36 am 10:36 Mostly Cloudy 57 14 34 1 41 41 W 21 33 30.12 1020 10 16.0934 N/A
10:56 am 10:56 Mostly Cloudy 57 14 34 1 41 41 W 18 30 30.12 1020 10 16.0934 N/A
11:16 am 11:16 Partly Cloudy 59 15 32 0 36 36 W 22 35 30.12 1020 10 16.0934 N/A
11:36 am 11:36 Mostly Cloudy 57 14 32 0 39 39 W 23 37 30.12 1020 10 16.0934 N/A
11:56 am 11:56 Mostly Cloudy 59 15 34 1 39 39 W 20 31 30.12 1020 10 16.0934 N/A
12:17 pm 12:17 Partly Cloudy 59 15 32 0 36 36 W 20 31 30.15 1021 10 16.0934 N/A
12:36 pm 12:36 Partly Cloudy 59 15 32 0 36 36 W 23 37 30.15 1021 10 16.0934 N/A
12:56 pm 12:56 Partly Cloudy 61 16 32 0 34 34 W 21 33 30.15 1021 10 16.0934 N/A
1:16 pm 13:16 Partly Cloudy 61 16 30 -1 31 31 W 17 28 30.15 1021 10 16.0934 N/A
1:36 pm 13:36 Partly Cloudy 63 17 32 0 32 32 W 21 33 30.15 1021 10 16.0934 N/A
1:56 pm 13:56 Partly Cloudy 63 17 32 0 32 32 W 22 35 30.15 1021 10 16.0934 N/A
2:16 pm 14:16 Partly Cloudy 61 16 32 0 34 34 W 20 31 30.15 1021 10 16.0934 N/A
2:36 pm 14:36 Partly Cloudy 63 17 30 -1 30 30 W 21 33 30.15 1021 10 16.0934 N/A
2:56 pm 14:56 Partly Cloudy 63 17 30 -1 30 30 W 17 28 30.15 1021 10 16.0934 N/A
3:16 pm 15:16 Partly Cloudy 61 16 30 -1 31 31 W 23 37 30.15 1021 10 16.0934 N/A
3:36 pm 15:36 Partly Cloudy 61 16 30 -1 31 31 W 23 37 30.18 1022 10 16.0934 N/A
3:56 pm 15:56 Partly Cloudy 61 16 32 0 34 34 WNW 23 37 30.18 1022 10 16.0934 N/A
4:16 pm 16:16 Mostly Cloudy 61 16 30 -1 31 31 W 21 33 30.18 1022 10 16.0934 N/A
4:36 pm 16:36 Mostly Cloudy 61 16 32 0 34 34 WNW 21 33 30.18 1022 10 16.0934 N/A
4:56 pm 16:56 Partly Cloudy 63 17 32 0 32 32 W 17 28 30.18 1022 10 16.0934 N/A
5:16 pm 17:16 Mostly Cloudy 61 16 32 0 34 34 WNW 20 31 30.18 1022 10 16.0934 N/A
5:36 pm 17:36 Partly Cloudy 59 15 32 0 36 36 WNW 20 31 30.18 1022 10 16.0934 N/A
5:56 pm 17:56 Partly Cloudy 61 16 34 1 36 36 WNW 21 33 30.18 1022 10 16.0934 N/A
6:16 pm 18:16 Partly Cloudy 61 16 32 0 34 34 W 20 31 30.18 1022 10 16.0934 N/A
6:36 pm 18:36 Partly Cloudy 61 16 32 0 34 34 WNW 16 26 30.18 1022 10 16.0934 N/A
6:56 pm 18:56 Partly Cloudy 59 15 32 0 36 36 WNW 18 30 30.18 1022 10 16.0934 N/A
7:16 pm 19:16 Partly Cloudy 61 16 30 -1 31 31 NW 16 26 30.18 1022 10 16.0934 N/A
7:36 pm 19:36 Partly Cloudy 61 16 30 -1 31 31 W 16 26 30.18 1022 10 16.0934 N/A
7:56 pm 19:56 Partly Cloudy 57 14 32 0 39 39 WNW 14 22 30.18 1022 10 16.0934 N/A
8:16 pm 20:16 Mostly Cloudy 57 14 32 0 39 39 WNW 13 20 30.18 1022 10 16.0934 N/A
8:36 pm 20:36 Partly Cloudy 55 13 34 1 44 44 WNW 8 13 30.24 1024 10 16.0934 N/A
8:56 pm 20:56 Partly Cloudy 55 13 34 1 44 44 NW 6 9 30.24 1024 10 16.0934 N/A
9:16 pm 21:16 Partly Cloudy 54 12 36 2 51 51 NW 6 9 30.24 1024 10 16.0934 N/A
9:36 pm 21:36 Clear 52 11 36 2 54 54 NW 5 7 30.24 1024 10 16.0934 N/A
9:56 pm 21:56 Partly Cloudy 52 11 36 2 54 54 NW 5 7 30.24 1024 10 16.0934 N/A
10:16 pm 22:16 Partly Cloudy 52 11 37 3 58 58 NW 6 9 30.24 1024 10 16.0934 N/A
10:36 pm 22:36 Clear 50 10 37 3 62 62 NNW 7 11 30.27 1025 10 16.0934 N/A
10:56 pm 22:56 Clear 50 10 37 3 62 62 NW 5 7 30.27 1025 10 16.0934 N/A
11:16 pm 23:16 Clear 50 10 37 3 62 62 NW 3 6 30.27 1025 10 16.0934 N/A
11:36 pm 23:36 Clear 50 10 37 3 62 62 NW 3 6 30.27 1025 10 16.0934 N/A
11:56 pm 23:56 Clear 50 10 36 2 58 58 Calm 30.27 1025 10 16.0934 N/A

Powered by AerisWeather